Weather History for KDET - December, 2012

Change the Weather History Date:

Thursday, December 27, 2012

  Actual Average Record
Temperature  
Mean Temperature 24 °F -  
Max Temperature 32 °F 32 °F 60 °F (2008)
Min Temperature 15 °F 21 °F 2 °F (1950)
Degree Days  
Heating Degree Days 42    
Moisture  
Dew Point 24 °F    
Average Humidity 87    
Maximum Humidity 100    
Minimum Humidity 59    
Precipitation  
Precipitation 0.01 in - - ()
Sea Level Pressure  
Sea Level Pressure 30.00 in    
Wind  
Wind Speed 7 mph (NNW)    
Max Wind Speed 13 mph    
Max Gust Speed 21 mph    
Visibility 7 miles    
Events Snow    
Averages and records for this station are not official NWS values.
T = Trace of Precipitation, MM = Missing Value Source: NWS Daily Summary

Daily Weather History Graph

Daily Weather History Graph

Search for Another Location

Airport or City:

Trip Planner

Search our weather history database for the weather conditions in past years. The results will help you decide how hot, cold, wet, or windy it might be!

Date:

Astronomy

Dec. 27, 2012 Rise Set
Actual Time 8:00 AM EST 5:06 PM EST
Civil Twilight 7:28 AM EST 5:38 PM EST
Nautical Twilight 6:53 AM EST 6:13 PM EST
Astronomical Twilight 6:18 AM EST 6:47 PM EST
Moon 4:49 PM EST (12/27) 7:10 AM EST (12/27)
Length of Visible Light 10h 09m
Length of Day
9h 05m
Full, 100% of the Moon is Illuminated
Dec 27
Full
Dec 28
Full
Jan 4
Last Quarter
Jan 11
New
Jan 18
First Quarter

Hourly Weather History & Observations

Time (EST) Temp. Windchill Dew Point Humidity Pressure Visibility Wind Dir Wind Speed Gust Speed Precip Events Conditions
12:41 AM 28.4 °F 20.4 °F 24.8 °F 86% 29.84 in 7.0 mi North 8.1 mph - 0.00 in Snow Light Snow
12:53 AM 28.0 °F 19.3 °F 26.1 °F 92% 29.87 in 4.0 mi North 9.2 mph - 0.00 in Snow Light Snow
1:01 AM 28.4 °F 19.1 °F 26.6 °F 93% 29.85 in 2.5 mi North 10.4 mph - 0.00 in Snow Light Snow
1:48 AM 28.4 °F 20.4 °F 26.6 °F 93% 29.86 in 3.0 mi North 8.1 mph - 0.01 in Snow Light Snow
1:53 AM 28.0 °F 20.8 °F 27.0 °F 96% 29.88 in 3.0 mi North 6.9 mph - 0.01 in Snow Light Snow
2:07 AM 28.4 °F 20.4 °F 26.6 °F 93% 29.86 in 4.0 mi North 8.1 mph - 0.00 in Snow Light Snow
2:32 AM 28.4 °F 21.2 °F 26.6 °F 93% 29.87 in 2.0 mi North 6.9 mph - 0.00 in Snow Light Snow
2:46 AM 28.4 °F 21.2 °F 28.4 °F 100% 29.88 in 4.0 mi North 6.9 mph - 0.00 in Snow Light Snow
2:53 AM 28.9 °F 22.8 °F 28.0 °F 96% 29.90 in 5.0 mi North 5.8 mph - 0.00 in Snow Light Snow
3:01 AM 28.4 °F 21.2 °F 28.4 °F 100% 29.88 in 7.0 mi North 6.9 mph - 0.00 in Snow Light Snow
3:53 AM 30.0 °F 24.1 °F 27.0 °F 88% 29.93 in 10.0 mi North 5.8 mph - 0.00 in   Overcast
4:23 AM 30.2 °F 23.4 °F 26.6 °F 86% 29.90 in 10.0 mi North 6.9 mph - 0.00 in   Overcast
4:53 AM 30.0 °F 23.2 °F 28.0 °F 92% 29.93 in 10.0 mi North 6.9 mph - 0.00 in   Overcast
5:04 AM 30.2 °F 23.4 °F 28.4 °F 93% 29.91 in 10.0 mi North 6.9 mph - N/A   Overcast
5:22 AM 30.2 °F 24.3 °F 28.4 °F 93% 29.91 in 2.5 mi North 5.8 mph - 0.00 in Snow Light Snow
5:33 AM 30.2 °F 24.3 °F 30.2 °F 100% 29.91 in 4.0 mi NNW 5.8 mph - 0.00 in Snow Light Snow
5:48 AM 30.2 °F 21.3 °F 30.2 °F 100% 29.92 in 7.0 mi North 10.4 mph - 0.00 in Snow Light Snow
5:53 AM 30.9 °F 21.7 °F 28.9 °F 92% 29.95 in 9.0 mi North 11.5 mph - 0.00 in   Overcast
6:01 AM 30.2 °F 20.2 °F 28.4 °F 93% 29.93 in 10.0 mi North 12.7 mph 19.6 mph N/A   Overcast
6:53 AM 30.9 °F 21.7 °F 28.0 °F 89% 29.97 in 10.0 mi North 11.5 mph 18.4 mph N/A   Overcast
7:53 AM 32.0 °F 22.5 °F 27.0 °F 82% 30.01 in 10.0 mi North 12.7 mph - N/A   Overcast
8:53 AM 30.9 °F 22.2 °F 26.1 °F 82% 30.04 in 10.0 mi North 10.4 mph 18.4 mph N/A   Overcast
9:53 AM 30.9 °F 21.2 °F 25.0 °F 79% 30.06 in 10.0 mi NNW 12.7 mph 20.7 mph N/A   Overcast
10:53 AM 30.0 °F 21.1 °F 25.0 °F 82% 30.08 in 10.0 mi North 10.4 mph - N/A   Overcast
11:53 AM 30.9 °F 22.8 °F 24.1 °F 76% 30.08 in 10.0 mi North 9.2 mph - N/A   Mostly Cloudy
12:53 PM 30.9 °F 23.5 °F 23.0 °F 72% 30.07 in 10.0 mi NW 8.1 mph - N/A   Overcast
1:53 PM 30.9 °F 25.2 °F 21.0 °F 67% 30.07 in 10.0 mi NW 5.8 mph - N/A   Scattered Clouds
2:53 PM 32.0 °F 26.4 °F 21.0 °F 64% 30.08 in 10.0 mi NNW 5.8 mph - N/A   Clear
3:53 PM 32.0 °F 26.4 °F 19.0 °F 59% 30.10 in 10.0 mi NNW 5.8 mph - N/A   Clear
4:53 PM 28.9 °F 21.9 °F 18.0 °F 64% 30.12 in 10.0 mi North 6.9 mph - N/A   Clear
5:53 PM 28.0 °F 22.8 °F 18.0 °F 66% 30.13 in 10.0 mi NNW 4.6 mph - N/A   Clear
6:53 PM 26.1 °F 21.9 °F 17.1 °F 69% 30.15 in 10.0 mi NNW 3.5 mph - N/A   Clear
7:53 PM 21.0 °F - 17.1 °F 85% 30.17 in 10.0 mi Calm Calm - N/A   Clear
8:53 PM 19.0 °F - 17.1 °F 92% 30.19 in 10.0 mi Calm Calm - N/A   Clear
9:53 PM 16.0 °F - 14.0 °F 92% 30.18 in 10.0 mi Calm Calm - N/A   Clear
10:53 PM 18.0 °F - 16.0 °F 92% 30.17 in 10.0 mi Calm Calm - N/A   Clear
11:46 PM 15.8 °F - 15.8 °F 100% 30.13 in 1.8 mi Calm Calm - N/A   Clear
11:53 PM 16.0 °F 10.4 °F 15.1 °F 96% 30.17 in 1.5 mi WSW 3.5 mph - N/A   Clear
11:56 PM 15.8 °F 10.2 °F 15.8 °F 100% 30.14 in 3.0 mi West 3.5 mph - N/A   Clear